Location: Unspecified
(39.0670°S, 0.0000°E)
Time: 13:17:16
(UTC+00:00)

Envisat - Pass Details

Date: 29 June 2019
Orbit: 764 x 766 km, 98.1° (Epoch: 25 August)

Event Time Altitude Azimuth Distance (km) Brightness Sun altitude
Rises 04:53:09 0° 65° (ENE) 3,236 7.4 -27.6°
Reaches altitude 10° 04:56:39 10° 90° (E) 2,319 6.5 -27.0°
Maximum altitude 04:59:03 13° 119° (ESE) 2,091 5.8 -26.5°
Drops below altitude 10° 05:01:27 10° 147° (SSE) 2,332 5.8 -26.1°
Sets 05:04:58 0° 172° (S) 3,268 6.2 -25.4°
